Location: Unspecified
(47.7670°N, 8.8522°E)
Time: 02:17:37
(UTC+01:00)

X-37B - Pass Details

Date: 07 December 2022
Orbit: 277 x 277 km, 45.0° (Epoch: 01 November)

Event Time Altitude Azimuth Distance (km) Brightness Sun altitude
Rises 18:30:00 0° 215° (SW) 1,904 4.8 -18.8°
Reaches altitude 10° 18:32:33 10° 184° (S) 1,096 3.1 -19.2°
Enters shadow 18:32:37 10° 183° (S) 1,083 3.0 -19.3°
